Location: DARK SKY Beskydy - Park tmavé oblohy, www.darkskybeskydy.cz
(49.4926°N, 18.5016°E)
Time: 17:37:21
(UTC+02:00)

PCSat - Pass Details

Date: 12 August 2024
Orbit: 781 x 793 km, 67.1° (Epoch: 08 September)

Event Time Altitude Azimuth Distance (km) Brightness Sun altitude
Rises 03:26:57 0° 313° (NW) 3,300 12.8 -17.0°
Reaches altitude 10° 03:30:07 10° 294° (WNW) 2,365 11.9 -16.7°
Enters shadow 03:32:57 17° 263° (W) 1,909 11.1 -16.4°
